Location: Newark
(23.3970°S, 47.6010°W)
Time: 07:46:38
(UTC+00:00)

deb Explorer IX - Pass Details

Date: 20 February 2020
Orbit: 548 x 1100 km, 38.8° (Epoch: 08 April)

Event Time Altitude Azimuth Distance (km) Brightness Sun altitude
Rises 07:30:13 0° 234° (SW) 3,879 - -20.7°
Exits shadow 07:31:38 - 231° (SW) 3,396 ? -20.4°
Reaches altitude 10° 07:33:11 10° 228° (SW) 2,876 ? -20.1°
Maximum altitude 07:39:57 50° 154° (SSE) 1,227 ? -18.6°
Drops below altitude 10° 07:45:54 10° 79° (E) 2,528 ? -17.4°
Sets 07:48:21 0° 73° (ENE) 3,376 ? -16.8°
